CZ-6A DEB, 55887

Orbit data source: Space-Track

CZ-6A DEB, 55887 is space debris in SSO originally from a launch on Fri, 11 Nov 2022 UTC launched from the Taiyaun Space Center, China (TSC). Debris objects in space refer to the collection of defunct objects orbiting the Earth. Examples of debris include non-operational satellites, rocket bodies, and fragments generated from explosions, collisions, or faulty payload assembly.

Loading next visibility...
Identifier
55887, 2022-151AAK
Orbit
SSO
Country
Flag of CNCN / PRC
Related business
Manufacturer
SAST
Mission
Spacecraft
Bus & Motor
Unknown
Mass
Unknown
Launch date (UTC)
2022-11-11 (4 years ago)
Launch vehicle
Unknown
Launch site
Taiyaun Space Center, China (TSC)
Object type
Payload
Rocket body
Debris
Shape & HBR
Unknown shape, 0.1 m
Radar Cross Section
Medium (>0.1 m² and <1 m²)

Expand to show TLE details & history
Last TLE update: 2 days ago

TLE from 2 days ago
0 CZ-6A DEB
1 55887U 22151AAK 26263.02143690  .00002989  00000-0  11094-2 0  9993
2 55887  98.7860 286.8256 0050361  41.0908 319.4051 14.32237497194714
Epoch: 2026-09-20T00:30Z
TLE epoch observation values (Epoch: 2026-09-20T00:30:52.148Z)
Latitude
0.00001°
Longitude
-79.81328°
Altitude
759.873 km
Speed
7.489 km/s
True Right ascension
19h 07m 18s
True Declination
0° 00' 00"
Sunlit
Object was in daylight at epoch
Visualization orbit readout
Latitude
Unknown
Longitude
Unknown
Altitude
Unknown
Speed
Unknown
Apparent Right ascension
Unknown
Apparent Declination
Unknown
Sunlit
N/A
Visualization observer readout
Local Sidereal Time
16:01:32
Azimuth
Unknown
Elevation
Unknown
Doppler factor
Unknown
Orbital elements
Apogee altitude
817.464 km
Perigee altitude
745.351 km
Semi-major axis
7,159.544 km
Eccentricity
0.00504
Inclination
98.786°
RAAN
286.8256°
Arg. of periapsis
41.0908°
True anomaly
319.02778°
Mean anomaly
319.4051°
Eccentric anomaly
319.21662°
Mean motion
3.58274 °/min
Orbital period
100.48 mins
BSTAR
0.0011094
Loading maneuver chart data...
Computing Atmospheric mass density...

Documentation

Showing up to 5 results
|